[[{"header":{"parameterUnit":"m.s-1","parameterCategory":1,"la1":30.2991,"la2":30.254,"lo1":-89.0895,"lo2":-89.0444,"dy":0.0017,"dx":0.0017,"nx":28,"ny":28,"refTime":"2024-12-22T09:00:00:Z","depth":0,"parameterNumber":2,"parameterNumberName":"U-component_of_WINDS"},"data":[0,0,0,0,0,0,0,0,0,0,0,0,0,0,0,0,0,0,0,0,0,0,0,0,0,0,0,0,0,0,0,0,0,0,0,0,0,0,0,0,0,0,0,0,0,0,0,0,0,0,0,0,0,0,0,0,0,0,-1.9888,-1.9888,0,-1.9904,-1.9904,-1.9904,-1.9854,-1.9853,-1.9851,-1.985,-1.9868,-1.987,-1.9872,0,0,0,0,0,0,0,0,0,0,0,0,0,-1.9816,-1.9817,-1.9888,-1.9888,-1.9888,-1.9904,-1.9904,-1.9904,-1.9855,-1.9853,-1.9851,-1.9849,-1.9868,-1.987,-1.9872,0,0,0,0,0,0,0,0,0,0,0,0,0,-1.9841,-1.9818,-1.9888,-1.9865,-1.9863,-1.9904,-1.9904,-1.9904,-1.9855,-1.9853,-1.985,-1.9848,-1.9867,-1.987,-1.9872,-1.9936,0,0,-1.9881,-1.9882,0,0,0,0,0,0,0,0,-1.984,-1.9844,-1.9868,-1.9867,-1.9865,-1.9875,-1.9885,-1.9915,-1.9856,-1.9858,-1.985,-1.9847,-1.9872,-1.9875,-1.9883,-1.9937,-1.9937,-1.9881,-1.9883,-1.9884,-1.9885,0,0,0,0,0,0,0,-1.9838,-1.9843,-1.9894,-1.9869,-1.9867,-1.9855,-1.9856,-1.9891,-1.9878,-1.9858,-1.9854,-1.9857,-1.9871,-1.988,-1.9883,-1.9938,-1.9881,-1.9884,-1.9886,-1.9887,-2.0045,-2.0048,0,0,0,0,0,0,-1.9839,-1.9842,-1.9893,-1.9894,-1.9846,-1.9858,-1.9859,-1.9874,-1.9877,-1.9876,-1.9859,-1.9854,-1.9876,-1.9879,-1.9883,-1.9959,-1.9884,-1.9887,-1.9889,-2.0043,-2.0046,-2.0049,0,0,0,0,0,0,-1.9837,-1.9844,-1.9893,-1.9867,-1.9872,-1.9862,-1.9878,-1.9875,-1.9884,-1.9878,-1.9876,-1.987,-1.9875,-1.9879,-1.9923,-1.9959,-1.9888,-1.9891,-2.004,-2.0044,-2.0047,-2.011,0,0,0,0,0,0,-1.9836,-1.9844,-1.9867,-1.9868,-1.9874,-1.9932,-1.9881,-1.9877,-1.9889,-1.9884,-1.9888,-1.9887,-1.9873,-1.9919,-1.9926,-1.9961,-1.9893,-2.0037,-2.0042,-2.0046,-2.0104,-2.0115,-2.0124,0,0,0,0,0,-1.9833,-1.9884,-1.9869,-1.9875,-1.9903,-1.9934,-1.9938,-1.9921,-1.9892,-1.9916,-1.9912,-1.9887,-1.9953,-1.9924,-1.9931,-1.9968,-2.0035,-2.004,-2.0046,-2.01,-2.0113,-2.0124,0,0,0,0,0,0,-1.9889,-1.9884,-1.9867,-1.9919,-1.9928,-1.9926,-1.9956,-1.9935,-1.9952,-1.9946,-1.9924,-1.9926,-1.9974,-1.9975,-1.9943,-2.003,-1.9989,-1.9997,-2.0028,-2.004,-2.005,-2.0049,-1.9896,0,0,0,0,0,-1.9907,-1.9932,-1.9927,-1.9974,-1.9979,-1.9967,-1.998,-1.9965,-1.9973,-1.9977,-1.9976,-1.9985,-2.0008,-2.0024,-2.0044,-2.0104,-2.0105,-2.0132,-2.0142,-2.015,-2.0158,-2.019,-2.0203,-2.0067,-2.0067,-2.0067,0,0,-1.9945,-1.9946,-1.9963,-1.9985,-1.999,-2.0017,-1.997,-2.0001,-2.0021,-1.9982,-2.0023,-2.0023,-2.0032,-2.0084,-2.0107,-2.0087,-2.0195,-2.0158,-2.0164,-2.0167,-2.0197,-2.021,-2.0222,-2.0071,-2.007,-2.007,0,0,-2.0029,-2.0032,-2.0072,-2.0077,-2.0085,-2.0076,-2.0086,-2.0087,-2.0086,-2.0127,-2.0098,-2.0122,-2.0162,-2.017,-2.0179,-2.0266,-2.0244,-2.0273,-2.0325,-2.0357,-2.0368,-2.0378,-2.041,-2.0422,-2.028,-2.028,-2.028,0,-2.0077,-2.0116,-2.0095,-2.0128,-2.0139,-2.0104,-2.0145,-2.0151,-2.0165,-2.0174,-2.015,-2.02,-2.0203,-2.0258,-2.0279,-2.0287,-2.0298,-2.0273,-2.0368,-2.0377,-2.0386,-2.0417,-2.0429,-2.0284,-2.0283,-2.0283,-2.0283,0,-2.0174,-2.0202,-2.0233,-2.0248,-2.0262,-2.0299,-2.0284,-2.0301,-2.0286,-2.028,-2.0323,-2.0326,-2.0347,-2.0358,-2.0344,-2.0411,-2.0398,-2.0372,-2.0331,-2.0403,-2.0432,-2.0443,-2.0289,-2.0288,-2.0287,-2.0286,0,0,-2.0295,-2.0297,-2.0309,-2.0315,-2.0321,-2.0343,-2.0378,-2.0398,-2.0414,-2.0424,-2.0455,-2.0489,-2.0465,-2.0475,-2.0461,-2.0489,-2.0559,-2.0459,-2.0459,-2.0479,-2.0635,-2.0656,-2.067,-2.0544,-2.0546,-2.0548,-2.0635,0,-2.0379,-2.0439,-2.0422,-2.0483,-2.0509,-2.0475,-2.0506,-2.0514,-2.0509,-2.0531,-2.0526,-2.0551,-2.0517,-2.0523,-2.0549,-2.0545,-2.0591,-2.0538,-2.0573,-2.0575,-2.0574,-2.0685,-2.0707,-2.079,-2.0646,-2.0648,-2.0649,0,-2.0486,-2.05,-2.0564,-2.0566,-2.0576,-2.0604,-2.0622,-2.0643,-2.065,-2.0645,-2.0657,-2.0637,-2.0673,-2.063,-2.068,-2.0644,-2.0657,-2.0658,-2.066,-2.0665,-2.0618,-2.0694,-2.0816,-2.0829,-2.0666,-2.0665,-2.0664,0,-2.057,-2.0605,-2.0648,-2.0654,-2.0657,-2.0678,-2.068,-2.0685,-2.0699,-2.0714,-2.0723,-2.0742,-2.0753,-2.0769,-2.0755,-2.0725,-2.0807,-2.0763,-2.0805,-2.0806,-2.0826,-2.0825,-2.0953,-2.0831,-2.0831,-2.0831,-2.083,0,-2.0666,-2.0707,-2.0686,-2.0713,-2.0758,-2.0736,-2.0782,-2.078,-2.0785,-2.0811,-2.0783,-2.0809,-2.0788,-2.0812,-2.0801,-2.0845,-2.0849,-2.0847,-2.0844,-2.0851,-2.0852,-2.086,-2.0855,-2.0834,-2.0833,-2.0832,-2.0832,0,-2.0769,-2.0756,-2.0801,-2.0799,-2.08,-2.0833,-2.0832,-2.0857,-2.085,-2.0884,-2.0891,-2.088,-2.0907,-2.0894,-2.0922,-2.0915,-2.0972,-2.096,-2.0969,-2.0967,-2.1011,-2.1007,-2.115,-2.1169,-2.1033,-2.1035,-2.1036,0,-2.0832,-2.0863,-2.0864,-2.088,-2.0884,-2.0909,-2.0922,-2.0903,-2.0918,-2.0929,-2.0953,-2.0977,-2.0996,-2.104,-2.1036,-2.1057,-2.1047,-2.1095,-2.105,-2.1056,-2.105,-2.1049,-2.1053,-2.1105,-2.1107,-2.1108,-2.1109,0,-2.0947,-2.0939,-2.0959,-2.0978,-2.0995,-2.1008,-2.1019,-2.1034,-2.1014,-2.1033,-2.106,-2.1074,-2.1103,-2.1128,-2.1146,-2.1149,-2.1127,-2.1123,-2.1135,-2.1143,-2.1148,-2.1147,-2.0996,-2.1121,-2.1119,-2.1119,-2.1118,-2.1118,-2.1033,-2.1059,-2.1065,-2.1088,-2.1095,-2.1106,-2.113,-2.1125,-2.1147,-2.1168,-2.1155,-2.1187,-2.1194,-2.1217,-2.1223,-2.1248,-2.1229,-2.1245,-2.1249,-2.1254,-2.1261,-2.1142,-2.1251,-2.1251,-2.1251,-2.125,-2.125,0,-2.1148,-2.115,-2.1172,-2.1188,-2.1207,-2.1183,-2.1194,-2.1212,-2.124,-2.1248,-2.1267,-2.1298,-2.1322,-2.1319,-2.1341,-2.1362,-2.1353,-2.1369,-2.1368,-2.1369,-2.1276,-2.1265,-2.1376,-2.1376,-2.1376,-2.1376,-2.1376,-2.1376,-2.121,-2.1254,-2.1246,-2.1293,-2.1294,-2.1325,-2.1333,-2.1344,-2.135,-2.1386,-2.1406,-2.1403,-2.1408,-2.143,-2.1451,-2.1449,-2.146,-2.148,-2.1475,-2.1388,-2.1376,-2.1364,-2.1354,-2.1482,-2.1482,-2.1567,-2.1568,-2.1569]},{"header":{"parameterUnit":"m.s-1","parameterCategory":1,"la1":30.2991,"la2":30.254,"lo1":-89.0895,"lo2":-89.0444,"dy":0.0017,"dx":0.0017,"nx":28,"ny":28,"refTime":"2024-12-22T09:00:00:Z","depth":0,"parameterNumber":3,"parameterNumberName":"V-component_of_WINDS"},"data":[0,0,0,0,0,0,0,0,0,0,0,0,0,0,0,0,0,0,0,0,0,0,0,0,0,0,0,0,0,0,0,0,0,0,0,0,0,0,0,0,0,0,0,0,0,0,0,0,0,0,0,0,0,0,0,0,0,0,-2.9534,-2.9534,0,-2.9556,-2.9556,-2.9556,-2.9522,-2.9521,-2.952,-2.9519,-2.9539,-2.954,-2.9542,0,0,0,0,0,0,0,0,0,0,0,0,0,-2.946,-2.9462,-2.9534,-2.9534,-2.9534,-2.9556,-2.9556,-2.9556,-2.9522,-2.9521,-2.9519,-2.9518,-2.9538,-2.954,-2.9542,0,0,0,0,0,0,0,0,0,0,0,0,0,-2.9488,-2.9462,-2.9534,-2.952,-2.9519,-2.9556,-2.9556,-2.9556,-2.9523,-2.9521,-2.9519,-2.9517,-2.9537,-2.954,-2.9542,-2.9592,0,0,-2.955,-2.9551,0,0,0,0,0,0,0,0,-2.9486,-2.9491,-2.9522,-2.9521,-2.952,-2.9534,-2.9537,-2.9568,-2.9523,-2.9521,-2.9519,-2.9517,-2.9538,-2.9541,-2.9549,-2.9593,-2.9594,-2.955,-2.9551,-2.9552,-2.9553,0,0,0,0,0,0,0,-2.9485,-2.949,-2.9542,-2.9522,-2.9521,-2.9512,-2.9514,-2.9543,-2.9539,-2.9521,-2.9519,-2.9522,-2.9538,-2.9546,-2.9549,-2.9594,-2.955,-2.9552,-2.9553,-2.9554,-2.9682,-2.9684,0,0,0,0,0,0,-2.9485,-2.9488,-2.9542,-2.9543,-2.9499,-2.9515,-2.9517,-2.9531,-2.9539,-2.9538,-2.9523,-2.952,-2.9543,-2.9546,-2.9549,-2.961,-2.9552,-2.9555,-2.9556,-2.968,-2.9683,-2.9685,0,0,0,0,0,0,-2.9483,-2.949,-2.9541,-2.9515,-2.9521,-2.9518,-2.9534,-2.9533,-2.9542,-2.9541,-2.954,-2.9533,-2.9542,-2.9546,-2.9582,-2.961,-2.9556,-2.9558,-2.9678,-2.9681,-2.9684,-2.973,0,0,0,0,0,0,-2.9481,-2.9489,-2.9509,-2.9516,-2.9522,-2.9574,-2.9536,-2.9535,-2.9546,-2.9542,-2.955,-2.9549,-2.9541,-2.9579,-2.9585,-2.9612,-2.956,-2.9675,-2.9679,-2.9683,-2.9726,-2.9734,-2.9741,0,0,0,0,0,-2.9479,-2.9521,-2.951,-2.9517,-2.9547,-2.9576,-2.958,-2.957,-2.9548,-2.9568,-2.9567,-2.9549,-2.9605,-2.9583,-2.9589,-2.9618,-2.9674,-2.9678,-2.9682,-2.9723,-2.9733,-2.9741,0,0,0,0,0,0,-2.9516,-2.9521,-2.951,-2.9555,-2.9566,-2.957,-2.9594,-2.958,-2.9596,-2.9592,-2.9578,-2.958,-2.962,-2.9622,-2.9597,-2.9667,-2.9636,-2.9642,-2.9664,-2.9674,-2.9681,-2.968,-2.9562,0,0,0,0,0,-2.953,-2.9554,-2.9556,-2.9596,-2.9602,-2.9597,-2.961,-2.9601,-2.9611,-2.9615,-2.9617,-2.9626,-2.9646,-2.966,-2.9678,-2.9726,-2.9727,-2.9748,-2.9756,-2.9762,-2.9768,-2.9794,-2.9804,-2.9699,-2.9699,-2.9699,0,0,-2.9558,-2.9564,-2.958,-2.9604,-2.9611,-2.9636,-2.9601,-2.9628,-2.9647,-2.9619,-2.9654,-2.9656,-2.9665,-2.9708,-2.9726,-2.9711,-2.9797,-2.9768,-2.9773,-2.9775,-2.9799,-2.9809,-2.9818,-2.9702,-2.9701,-2.9701,0,0,-2.9623,-2.9629,-2.9664,-2.9672,-2.9683,-2.968,-2.9688,-2.9695,-2.9695,-2.973,-2.971,-2.9731,-2.9765,-2.9773,-2.9782,-2.985,-2.9834,-2.9856,-2.9896,-2.9921,-2.993,-2.9937,-2.9962,-2.9971,-2.9861,-2.9861,-2.9861,0,-2.9656,-2.9694,-2.9683,-2.9712,-2.9723,-2.97,-2.9735,-2.9742,-2.9759,-2.9767,-2.9749,-2.9793,-2.9797,-2.9842,-2.9859,-2.9866,-2.9875,-2.9856,-2.9929,-2.9937,-2.9943,-2.9967,-2.9977,-2.9864,-2.9864,-2.9863,-2.9863,0,-2.9735,-2.9761,-2.9787,-2.9805,-2.9819,-2.9851,-2.9844,-2.9859,-2.985,-2.9848,-2.9884,-2.9889,-2.9908,-2.9918,-2.9908,-2.9961,-2.9951,-2.9932,-2.9901,-2.9956,-2.9979,-2.9987,-2.9868,-2.9867,-2.9866,-2.9865,0,0,-2.9824,-2.9836,-2.9846,-2.9855,-2.9865,-2.9885,-2.9915,-2.9935,-2.9949,-2.9961,-2.9986,-3.0016,-2.9998,-3.0008,-2.9999,-3.0021,-3.0076,-2.9999,-2.9999,-3.0014,-3.0136,-3.0152,-3.0162,-3.0064,-3.0066,-3.0067,-3.0135,0,-2.989,-2.9944,-2.9935,-2.9987,-3.0011,-2.9989,-3.0016,-3.0025,-3.0024,-3.0044,-3.0042,-3.0064,-3.0038,-3.0044,-3.0065,-3.0065,-3.01,-3.0059,-3.0088,-3.0089,-3.0088,-3.0174,-3.019,-3.0254,-3.0144,-3.0145,-3.0146,0,-2.9974,-2.999,-3.0045,-3.0053,-3.0063,-3.0087,-3.0105,-3.0124,-3.0134,-3.0131,-3.0143,-3.0129,-3.0159,-3.0127,-3.0168,-3.014,-3.0151,-3.0152,-3.0155,-3.0158,-3.0122,-3.0181,-3.0274,-3.0285,-3.016,-3.0159,-3.0158,0,-3.0036,-3.0071,-3.0109,-3.0116,-3.0126,-3.0144,-3.0148,-3.0156,-3.0169,-3.0184,-3.0192,-3.021,-3.022,-3.0234,-3.0225,-3.0202,-3.0268,-3.0235,-3.0268,-3.0268,-3.0284,-3.0283,-3.0382,-3.0288,-3.0288,-3.0288,-3.0288,0,-3.011,-3.0145,-3.0137,-3.016,-3.0199,-3.0187,-3.0225,-3.0227,-3.0234,-3.0257,-3.0238,-3.026,-3.0247,-3.0268,-3.0261,-3.0296,-3.0301,-3.03,-3.0298,-3.0302,-3.0303,-3.031,-3.0306,-3.029,-3.029,-3.0289,-3.0289,0,-3.0186,-3.0182,-3.0222,-3.0228,-3.0231,-3.0259,-3.0264,-3.0285,-3.0283,-3.0312,-3.0318,-3.0314,-3.0337,-3.033,-3.0355,-3.035,-3.0396,-3.0387,-3.0393,-3.0392,-3.0425,-3.0423,-3.0534,-3.0548,-3.0444,-3.0445,-3.0446,0,-3.0235,-3.0262,-3.0271,-3.0286,-3.0293,-3.0316,-3.0329,-3.0319,-3.0333,-3.0346,-3.0366,-3.0388,-3.0405,-3.0443,-3.0442,-3.0461,-3.0454,-3.0491,-3.0456,-3.046,-3.0456,-3.0455,-3.0458,-3.0499,-3.05,-3.0501,-3.0501,0,-3.0323,-3.032,-3.034,-3.036,-3.0377,-3.0392,-3.0405,-3.0417,-3.0408,-3.0425,-3.0449,-3.0462,-3.0488,-3.051,-3.0527,-3.0531,-3.0515,-3.0512,-3.0521,-3.0527,-3.053,-3.053,-3.0414,-3.051,-3.0509,-3.0509,-3.0508,-3.0508,-3.0388,-3.0411,-3.0422,-3.0445,-3.0454,-3.0467,-3.0488,-3.0488,-3.0509,-3.053,-3.0522,-3.055,-3.0558,-3.058,-3.0586,-3.0607,-3.0593,-3.0605,-3.0609,-3.0613,-3.0618,-3.0525,-3.061,-3.061,-3.061,-3.0609,-3.0609,0,-3.0476,-3.0482,-3.0504,-3.0523,-3.0542,-3.0525,-3.0539,-3.0555,-3.0581,-3.0591,-3.0608,-3.0636,-3.0657,-3.0658,-3.0678,-3.0695,-3.0688,-3.07,-3.07,-3.0701,-3.0629,-3.062,-3.0705,-3.0705,-3.0705,-3.0705,-3.0705,-3.0705,-3.0524,-3.0563,-3.0561,-3.0603,-3.0608,-3.0637,-3.0646,-3.0658,-3.0666,-3.0698,-3.0716,-3.0717,-3.0723,-3.0743,-3.0762,-3.0761,-3.077,-3.0786,-3.0782,-3.0715,-3.0706,-3.0697,-3.0688,-3.0787,-3.0787,-3.0853,-3.0854,-3.0854]}]]